Location: Nandig?ma
(16.7717°N, 80.2860°E)
Time: 10:49:43
(UTC+00:00)

SAR-Lupe-2 - Pass Details

Date: 03 August 2024
Orbit: 481 x 482 km, 98.1° (Epoch: 05 September)

Event Time Altitude Azimuth Distance (km) Brightness Sun altitude
Rises 13:56:23 0° 177° (S) 2,529 6.9 -11.2°
Reaches altitude 10° 13:58:28 10° 182° (S) 1,651 6.1 -11.7°
Maximum altitude 14:01:55 52° 259° (WSW) 605 4.4 -12.4°
Drops below altitude 10° 14:05:24 10° 336° (NNW) 1,654 7.0 -13.2°
Sets 14:07:29 0° 342° (NNW) 2,534 7.9 -13.7°
